Regional Weather Roundup
Issued by NWS

Home | Current Version | Previous Version | Text Only | Print | Product List | Glossary On
Versions: 1 2 3 4 5 6 7 8 9 10 11 12 13 14 15 16 17 18 19 20 21 22 23 24 25 26 27 28 29 30 31 32 33 34 35 36 37 38 39 40 41 42 43 44 45 46 47 48 49 50
000
ASUS43 KLMK 221310
RWRKY
KENTUCKY REGIONAL WEATHER ROUNDUP
NATIONAL WEATHER SERVICE LOUISVILLE KY
800 AM EST MON DEC 22 2014

NOTE "FAIR" INDICATES FEW OR NO CLOUDS BELOW 12,000 FEET
WITH NO SIGNIFICANT WEATHER AND/OR OBSTRUCTIONS TO VISIBILITY.

KYZ001>023-026-027-061>063-070>075-221400-
WESTERN AND SOUTH CENTRAL KENTUCKY

CITY           SKY/WX    TMP DP  RH WIND       PRES   REMARKS
PADUCAH        CLOUDY    47  43  86 S9        29.87R
HENDERSON      CLOUDY    39  34  81 SE5       29.90S
OWENSBORO      CLOUDY    43  37  79 SE8       29.92F
HOPKINSVILLE   CLOUDY    46  44  91 SE9       29.89F
BOWLING GREEN  CLOUDY    39  34  82 CALM      29.95F
GLASGOW        CLOUDY    47  41  79 CALM      29.96S
$$

KYZ024-025-028>034-038-045-046-053-221400-
NORTH CENTRAL KENTUCKY

CITY           SKY/WX    TMP DP  RH WIND       PRES   REMARKS
LOUISVILLE/SDF CLOUDY    38  31  76 CALM      29.98S
LOUISVILLE/LOU CLOUDY    40  31  70 CALM      29.99S
FORT KNOX      CLOUDY    37  32  81 E7        29.95F WCI  32
$$

KYZ035>037-039>044-047>052-055>060-089>105-221400-
NORTHEAST KENTUCKY

CITY           SKY/WX    TMP DP  RH WIND       PRES   REMARKS
LEXINGTON      MOCLDY    37  29  72 SE9       30.01S WCI  30
COVINGTON      CLOUDY    35  26  69 SE7       30.01S WCI  29
FRANKFORT      MOCLDY    31  28  89 CALM      29.99F
$$

KYZ054-064>069-076>088-106>120-221400-
SOUTHEAST KENTUCKY

CITY           SKY/WX    TMP DP  RH WIND       PRES   REMARKS
JACKSON        MOCLDY    40  33  76 E3        30.02S
LONDON         CLOUDY    43  35  73 CALM      30.02S
SOMERSET       CLOUDY    37  32  81 CALM      30.02F
MIDDLESBORO    CLOUDY    44  38  79 CALM      30.03S
MONTICELLO     CLOUDY    46  39  76 CALM      30.02F
$$




USA.gov is the U.S. government's official web portal to all federal, state and local government web resources and services.